Location: Newark
(34.6283°N, 36.0776°E)
Time: 10:41:57
(UTC+00:00)

S-56A Canister/Altair - Pass Details

Date: 25 October 2019
Orbit: 634 x 2498 km, 38.9° (Epoch: 20 November)

Event Time Altitude Azimuth Distance (km) Brightness Sun altitude
Rises 03:35:06 0° 290° (WNW) 3,938 - -3.7°
Exits shadow 03:36:00 - 289° (WNW) 3,641 10.3 -3.5°
Reaches altitude 10° 03:37:26 10° 288° (WNW) 3,179 10.0 -3.2°
Maximum altitude 03:45:34 74° 205° (SSW) 1,685 9.3 -1.6°
Drops below altitude 10° 03:57:58 10° 124° (ESE) 4,683 13.2 0.9°
Sets 04:02:10 0° 123° (ESE) 5,885 13.9 1.7°
